This demonstration page uses our WeatherBlox Daily Observations layout. Learn more.

Left ArrowRight Arrow

Hourly Observations for August 21, 2015

Temp ( °F °C ) Dew Point ( °F °C ) Humidity (%) Winds ( mph kmh ) Pressure ( in mb ) Visibility ( mi km ) Precip ( " mm )
12:53 am 00:53 Clear 57 13.9 56 13.3 96 96 N N/A 30.10 1019 10 16 N/A
1:53 am 01:53 Clear 57 13.9 56 13.3 96 96 N N/A 30.09 1019 10 16 N/A
2:53 am 02:53 Clear 57 13.9 56 13.3 96 96 N N/A 30.09 1019 10 16 N/A
3:53 am 03:53 Clear 55 12.8 54 12.2 96 96 N N/A 30.10 1019 9 14 N/A
4:53 am 04:53 Clear 55 12.8 54 12.2 96 96 N N/A 30.09 1019 10 16 N/A
5:53 am 05:53 Clear 54 12.2 53 11.7 97 97 N N/A 30.11 1020 10 16 N/A
6:08 am 06:08 Clear with Mist and Fog 54 12.2 53 11.7 97 97 N N/A 30.12 1020 3 4 N/A
6:16 am 06:16 Clear 53 11.7 52 11.1 96 96 N N/A 30.12 1020 10 16 N/A
6:49 am 06:49 Mostly Clear with Mist and Fog 52 11 52 11 100 100 N N/A 30.12 1020 2 2 N/A
6:53 am 06:53 Mostly Cloudy with Fog 52 11.1 51 10.6 97 97 N N/A 30.13 1020 1 1 N/A
7:02 am 07:02 Partly Cloudy with Mist and Fog 53 11.7 52 11.1 96 96 N N/A 30.15 1021 2 3 N/A
7:09 am 07:09 Partly Cloudy 53 11.7 52 11.1 96 96 N N/A 30.15 1021 7 11 N/A
7:53 am 07:53 Sunny 57 13.9 55 12.8 93 93 N N/A 30.15 1021 10 16 N/A
8:53 am 08:53 Sunny 63 17.2 58 14.4 84 84 N N/A 30.17 1022 10 16 N/A
9:53 am 09:53 Sunny 70 21.1 57 13.9 64 64 N N/A 30.18 1022 10 16 N/A
10:53 am 10:53 Sunny 73 22.8 55 12.8 53 53 ENE 3 6 30.18 1022 10 16 N/A
11:53 am 11:53 Sunny 76 24.4 48 8.9 37 37 N 6 9 30.18 1022 10 16 N/A
12:53 pm 12:53 Sunny 76 24.4 50 10 40 40 N N/A 30.18 1022 10 16 N/A
1:53 pm 13:53 Sunny 78 25.6 50 10 37 37 N 5 7 30.16 1022 10 16 N/A
2:53 pm 14:53 Sunny 79 26.1 51 10.6 38 38 NNE 7 11 30.15 1021 10 16 N/A
3:53 pm 15:53 Sunny 79 26.1 51 10.6 38 38 SSE 5 7 30.14 1021 10 16 N/A
4:53 pm 16:53 Sunny 79 26.1 50 10 36 36 N N/A 30.13 1020 10 16 N/A
5:53 pm 17:53 Sunny 80 26.7 50 10 35 35 NW 3 6 30.11 1020 10 16 N/A
6:53 pm 18:53 Sunny 78 25.6 53 11.7 42 42 NNW 5 7 30.11 1020 10 16 N/A
7:53 pm 19:53 Sunny 73 22.8 56 13.3 55 55 N 3 6 30.11 1020 10 16 N/A
8:53 pm 20:53 Clear 62 16.7 58 14.4 86 86 N N/A 30.11 1020 10 16 N/A
9:53 pm 21:53 Clear 60 15.6 57 13.9 90 90 N N/A 30.13 1020 10 16 N/A
10:53 pm 22:53 Clear 59 15 56 13.3 90 90 N N/A 30.14 1021 10 16 N/A
11:53 pm 23:53 Clear 58 14.4 55 12.8 90 90 N N/A 30.14 1021 10 16 N/A

Powered by AerisWeather